星链-4786 (STARLINK-4786 )

导读 | 豆包AI

STARLINK-4786是美国太空探索技术公司星链计划中的一颗卫星,于2023年1月31日发射升空,隶属于美国SpaceX公司打造的近地轨道卫星星座。星链计划旨在构建全球卫星互联网,该卫星入轨后将服务于全球网络覆盖,助力偏远地区网络接入,为全球高速互联网服务提供基础设施支持。

Basic Information
目录编号:
55393
目录名称:
STARLINK-4786
国际标识:
2023-014C
轨道中心:
EARTH
卫星名称:
星链-4786
卫星全名:
星链-4786 (STARLINK-4786 )
卫星状态:
在轨 (已飞行1185 天)
发射日期:
2023-01-31 UTC
国别 :
美国 (US)
星等 :
--
Orbit Information
数据来源 国际轨道数据 AOE轨道数据
星历时间 2026-04-30T06:20:20+0800
19小时前
查看轨道信息
2026-04-26T02:00:00+0800
5天前
查看轨道信息
半长轴 6950.17km 6950.205km
偏心率 0.0002807 0.0003091
轨道倾角 69.998° 70.000°
近地点辐角 275.077° 274.913°
升交点赤经 295.156° 305.697°
平近点角 85.007° 220.451°
近地点 570.082km 569.919km
远地点 573.984km 574.217km
周期 96.107分钟 96.107分钟
每日圈数 14.983376 14.983264
Detailed Information
固有亮度:
5
最大亮度:
2.5
卫星平台:
Starlink v1.5
覆盖范围:
全球
运营商:
太空探索技术公司
运营商所在国:
美国
制造商(研发单位):
太空探索技术公司
制造商所在国:
美国
使用方式:
暂无
Satellite Introduction
星链(Starlink)计划是由太空探索技术公司(SpaceX)提出的一个巨型低轨卫星互联网星座项目,计划在2019年至2024年间在太空搭建由约1.2万颗卫星组成的“星链”网络,其中1584颗将部署在地球上空550千米处的近地轨道,并从2020年开始工作。该卫星仍在工作。
2D Orbit Map
3D Orbit Map
Orbit Altitude Analysis Chart
Orbit Inclination Analysis Chart
Orbit Comprehensive Analysis Chart
View Comprehensive Chart